Location: San Antonio
(29.4240°N, 98.4930°W)
Time: 17:47:47
(UTC-05:00)

ZACube-1 - Pass Details

Date: 07 August 2024
Orbit: 562 x 628 km, 97.7° (Epoch: 14 September)

Event Time Altitude Azimuth Distance (km) Brightness Sun altitude
Rises 04:34:50 0° 6° (N) 2,906 ? -27.8°
Reaches altitude 10° 04:37:02 10° 3° (N) 2,003 ? -27.5°
Enters shadow 04:39:54 38° 344° (NNW) 961 ? -27.0°
